Yielding Lake Weather Center

Moon Phase Calendar



Yielding Lake Water Level
Online Cameras

 


      

Current Conditions in Vandiver
11/27/2020 4:43:25 PM

64°F
Feels Like 65
Clouds
Humidity
70%
Pressure
30"
Wind
0.4 mph (WNW)
Dew Point
54°F
UV Index
0/10 (Low)
Visibility
6 mi

Hourly Forecast

Date & Time Fri, Nov 27
4:00 PM
Fri, Nov 27
5:00 PM
Fri, Nov 27
6:00 PM
Fri, Nov 27
7:00 PM
Fri, Nov 27
8:00 PM
Fri, Nov 27
9:00 PM
Fri, Nov 27
10:00 PM
Fri, Nov 27
11:00 PM
Sat, Nov 28
12:00 AM
Sat, Nov 28
1:00 AM
Sat, Nov 28
2:00 AM
Sat, Nov 28
3:00 AM
Sat, Nov 28
4:00 AM
Sat, Nov 28
5:00 AM
Sat, Nov 28
6:00 AM
Sat, Nov 28
7:00 AM
Sat, Nov 28
8:00 AM
Sat, Nov 28
9:00 AM
Sat, Nov 28
10:00 AM
Sat, Nov 28
11:00 AM
Sat, Nov 28
12:00 PM
Sat, Nov 28
1:00 PM
Sat, Nov 28
2:00 PM
Sat, Nov 28
3:00 PM
Sat, Nov 28
4:00 PM
Sat, Nov 28
5:00 PM
Sat, Nov 28
6:00 PM
Sat, Nov 28
7:00 PM
Sat, Nov 28
8:00 PM
Sat, Nov 28
9:00 PM
Sat, Nov 28
10:00 PM
Sat, Nov 28
11:00 PM
Sun, Nov 29
12:00 AM
Sun, Nov 29
1:00 AM
Sun, Nov 29
2:00 AM
Sun, Nov 29
3:00 AM
Sun, Nov 29
4:00 AM
Sun, Nov 29
5:00 AM
Sun, Nov 29
6:00 AM
Sun, Nov 29
7:00 AM
Sun, Nov 29
8:00 AM
Sun, Nov 29
9:00 AM
Sun, Nov 29
10:00 AM
Sun, Nov 29
11:00 AM
Sun, Nov 29
12:00 PM
Sun, Nov 29
1:00 PM
Sun, Nov 29
2:00 PM
Sun, Nov 29
3:00 PM
Condition
Clouds

Clouds

Clouds

Rain

Clouds

Clouds

Clouds

Clouds

Clouds

Clouds

Clouds

Clouds

Clouds

Rain

Rain

Rain

Clouds

Clouds

Clouds

Clouds

Clouds

Clouds

Clouds

Clouds

Clouds

Clouds

Clouds

Clouds

Clouds

Clouds

Clouds

Clouds

Clouds

Clouds

Clouds

Clouds

Clouds

Clouds

Clouds

Clouds

Clouds

Clouds

Clouds

Clouds

Rain

Rain

Rain

Rain
Temperature 64°F63°F62°F61°F60°F59°F60°F59°F58°F57°F58°F59°F58°F57°F56°F55°F56°F59°F61°F64°F66°F67°F67°F66°F63°F59°F58°F57°F56°F55°F55°F55°F54°F54°F53°F53°F53°F53°F53°F53°F56°F59°F62°F63°F61°F62°F60°F60°F
Feels Like 65°F62°F60°F59°F59°F58°F58°F58°F59°F58°F58°F59°F57°F54°F54°F54°F54°F57°F59°F62°F63°F64°F65°F64°F61°F57°F55°F55°F54°F53°F52°F52°F51°F51°F51°F50°F49°F49°F50°F50°F53°F56°F59°F60°F58°F58°F56°F56°F
Cloudiness 100%100%100%100%100%100%100%100%100%100%100%100%100%100%100%100%96%87%84%87%89%100%100%100%100%100%100%100%100%100%100%100%100%100%100%100%100%100%100%100%100%100%100%100%100%100%100%100%
Visibility 6 mi6 mi6 mi6 mi6 mi6 mi6 mi6 mi6 mi6 mi6 mi6 mi6 mi6 mi6 mi6 mi6 mi6 mi6 mi6 mi6 mi6 mi6 mi6 mi6 mi6 mi6 mi6 mi6 mi6 mi6 mi6 mi6 mi6 mi6 mi6 mi6 mi6 mi6 mi6 mi6 mi6 mi6 mi6 mi6 mi6 mi6 mi6 mi
Precipitation 1%2%5%59%54%50%49%33%32%15%19%13%20%32%43%32%23%15%7%4%0%0%0%0%0%0%0%0%0%0%0%0%0%0%0%0%0%0%0%0%0%0%0%8%34%97%100%100%
Humidity 70%62%58%60%63%66%68%74%79%84%86%86%84%84%87%88%85%79%72%65%58%55%55%57%66%73%74%76%77%78%78%79%79%79%78%78%78%76%76%76%74%77%80%80%86%86%90%90%
Dew Point 54°F50°F47°F47°F47°F48°F49°F51°F52°F53°F54°F54°F53°F52°F52°F52°F52°F52°F52°F52°F51°F50°F50°F51°F51°F50°F50°F50°F49°F49°F49°F48°F48°F48°F47°F47°F46°F46°F46°F46°F48°F52°F55°F57°F57°F58°F57°F57°F
Pressure 30"30"30.06"30.06"30.09"30.09"30.06"30.06"30.06"30.06"30.06"30.06"30.06"30.06"30.09"30.12"30.12"30.12"30.12"30.12"30.12"30.09"30.09"30.09"30.09"30.09"30.09"30.09"30.09"30.09"30.12"30.09"30.09"30.09"30.06"30.06"30.06"30.06"30.06"30.06"30.06"30.06"30.03"30"29.97"29.91"29.88"29.85"
Wind Speed 0.3 mph0.4 mph1.6 mph1.3 mph0.2 mph1.4 mph1.9 mph0.7 mph0.4 mph1.2 mph1.4 mph1.9 mph4.2 mph5.7 mph3.8 mph3.7 mph4.4 mph4.2 mph5.1 mph4.7 mph4.5 mph4.3 mph3.7 mph3.8 mph3.6 mph2.5 mph4 mph2.4 mph4.2 mph3 mph4 mph3.4 mph4.2 mph4 mph3.8 mph3.8 mph3.9 mph4.3 mph3.9 mph3.8 mph4.7 mph6.5 mph7.1 mph9.5 mph9.2 mph10.8 mph11.2 mph11.3 mph
Wind
Direction
26°
NNE
301°
WNW
266°
W
97°
E
108°
ESE
152°
SSE
140°
SE
196°
SSW
214°
SW
193°
SSW
284°
WNW
343°
NNW

N

N
28°
NNE
48°
NE
22°
NNE
28°
NNE
26°
NNE
32°
NNE
38°
NE
44°
NE
39°
NE
46°
NE
42°
NE
37°
NE
28°
NNE
35°
NE
39°
NE
37°
NE
45°
NE
66°
ENE
68°
ENE
64°
ENE
78°
ENE
58°
ENE
74°
ENE
93°
E
101°
E
99°
E
115°
ESE
139°
SE
146°
SE
160°
SSE
153°
SSE
163°
SSE
144°
SE
164°
SSE

Daily Forecast

Date High Low Precip. Humidity
Today
Nov 27

Clouds
69 °F
49 °F
59%
44%
Saturday
Nov 28

Rain
67 °F
55 °F
43%
65%
Sunday
Nov 29

Rain
61 °F
53 °F
100%
86%
Monday
Nov 30

Rain
52 °F
32 °F
100%
70%
Tuesday
Dec 1

Clear
44 °F
27 °F
0%
57%
Wednesday
Dec 2

Clear
54 °F
30 °F
0%
39%
Thursday
Dec 3

Rain
44 °F
37 °F
96%
78%
Friday
Dec 4

Rain
47 °F
39 °F
46%
62%
Saturday
Dec 5

Clear
46 °F
34 °F
0%
57%
Sunday
Dec 6

Clear
51 °F
34 °F
0%
51%
Monday
Dec 7

Clear
53 °F
32 °F
0%
43%
Tuesday
Dec 8

Rain
53 °F
35 °F
20%
47%
Wednesday
Dec 9

Rain
43 °F
30 °F
20%
66%
Thursday
Dec 10

Snow
43 °F
29 °F
20%
63%
Friday
Dec 11

Clear
41 °F
25 °F
0%
63%
Saturday
Dec 12

Rain
49 °F
29 °F
100%
57%


Temperature 8-14 Day Outlook



Precipitation 8-14 Day Outlook




Quick Links
Yielding Lake News
Yielding Lake Photos
Yielding Lake Videos




About Us
Contact Us
Site Map
Search Site
Advertise With Us
   
Yielding.LakesOnline.com
THE YIELDING LAKE WEBSITE

Copyright 2020, Lakes Online
Privacy    |    Legal